Time,TemperatureF,DewpointF,PressureIn,WindDirection,WindDirectionDegrees,WindSpeedMPH,WindSpeedGustMPH,Humidity,HourlyPrecipIn,Conditions,Clouds,dailyrainin,SoftwareType,DateUTC
2013-03-26 00:03:00,26.6,21.0,27.47,ENE,68,0.0,0.0,79,0.00,,,0.00,WUHU216HW,2013-03-26 07:03:00,
2013-03-26 00:08:00,26.5,20.8,27.47,ENE,68,0.0,0.0,79,0.00,,,0.00,WUHU216HW,2013-03-26 07:08:00,
2013-03-26 00:13:00,26.3,20.6,27.47,ENE,68,0.0,0.0,79,0.00,,,0.00,WUHU216HW,2013-03-26 07:13:00,
2013-03-26 00:18:00,26.3,20.6,27.47,ENE,68,0.0,0.0,79,0.00,,,0.00,WUHU216HW,2013-03-26 07:18:00,
2013-03-26 00:23:00,26.3,20.9,27.47,ENE,68,0.0,0.0,80,0.00,,,0.00,WUHU216HW,2013-03-26 07:23:00,
2013-03-26 00:28:00,26.3,20.9,27.47,ENE,68,0.0,0.0,80,0.00,,,0.00,WUHU216HW,2013-03-26 07:28:00,
2013-03-26 00:33:00,26.3,20.9,27.47,ENE,68,0.0,0.0,80,0.00,,,0.00,WUHU216HW,2013-03-26 07:33:00,
2013-03-26 00:38:00,26.3,21.3,27.47,ENE,68,0.0,0.0,81,0.00,,,0.00,WUHU216HW,2013-03-26 07:38:00,
2013-03-26 00:43:00,26.1,20.8,27.46,ENE,68,0.0,0.0,80,0.00,,,0.00,WUHU216HW,2013-03-26 07:43:00,
2013-03-26 00:48:00,26.1,20.8,27.47,ENE,68,0.0,0.0,80,0.00,,,0.00,WUHU216HW,2013-03-26 07:48:00,
2013-03-26 00:53:00,25.9,20.9,27.46,ENE,68,0.0,0.0,81,0.00,,,0.00,WUHU216HW,2013-03-26 07:53:00,
2013-03-26 00:58:00,25.7,20.7,27.46,ENE,68,0.0,0.0,81,0.00,,,0.00,WUHU216HW,2013-03-26 07:58:00,
2013-03-26 01:03:00,25.7,20.4,27.46,ENE,68,0.0,0.0,80,0.00,,,0.00,WUHU216HW,2013-03-26 08:03:00,
2013-03-26 01:08:00,25.7,20.4,27.46,ENE,68,0.0,0.0,80,0.00,,,0.00,WUHU216HW,2013-03-26 08:08:00,
2013-03-26 01:13:00,25.7,20.4,27.46,ENE,68,0.0,0.0,80,0.00,,,0.00,WUHU216HW,2013-03-26 08:13:00,
2013-03-26 01:18:00,25.6,20.3,27.46,ENE,68,0.0,0.0,80,0.00,,,0.00,WUHU216HW,2013-03-26 08:18:00,
2013-03-26 01:23:00,25.6,20.3,27.46,ENE,68,0.0,0.0,80,0.00,,,0.00,WUHU216HW,2013-03-26 08:23:00,
2013-03-26 01:28:00,25.6,20.3,27.46,ENE,68,0.0,0.0,80,0.00,,,0.00,WUHU216HW,2013-03-26 08:28:00,
2013-03-26 01:33:00,25.6,20.3,27.46,ENE,68,0.0,0.0,80,0.00,,,0.00,WUHU216HW,2013-03-26 08:33:00,
2013-03-26 01:38:00,25.6,20.3,27.46,ENE,68,0.0,0.0,80,0.00,,,0.00,WUHU216HW,2013-03-26 08:38:00,
2013-03-26 01:43:00,25.6,20.3,27.46,ENE,68,0.0,0.0,80,0.00,,,0.00,WUHU216HW,2013-03-26 08:43:00,
2013-03-26 01:48:00,25.4,20.3,27.46,ENE,68,0.0,0.0,81,0.00,,,0.00,WUHU216HW,2013-03-26 08:48:00,
2013-03-26 01:53:00,25.6,20.3,27.46,ENE,68,0.0,0.0,80,0.00,,,0.00,WUHU216HW,2013-03-26 08:53:00,
2013-03-26 01:58:00,25.6,20.5,27.46,NE,45,0.0,0.0,81,0.00,,,0.00,WUHU216HW,2013-03-26 08:58:00,
2013-03-26 02:03:00,25.4,20.7,27.46,NE,45,0.0,0.2,82,0.00,,,0.00,WUHU216HW,2013-03-26 09:03:00,
2013-03-26 02:08:00,25.6,20.8,27.46,SW,225,0.0,0.2,82,0.00,,,0.00,WUHU216HW,2013-03-26 09:08:00,
2013-03-26 02:13:00,25.2,20.3,27.46,SW,225,0.0,0.0,81,0.00,,,0.00,WUHU216HW,2013-03-26 09:13:00,
2013-03-26 02:18:00,25.2,20.3,27.46,SW,225,0.0,0.0,81,0.00,,,0.00,WUHU216HW,2013-03-26 09:18:00,
2013-03-26 02:23:00,25.0,20.1,27.46,SW,225,0.0,0.0,81,0.00,,,0.00,WUHU216HW,2013-03-26 09:23:00,
2013-03-26 02:28:00,24.8,19.6,27.46,SW,225,0.0,0.0,80,0.00,,,0.00,WUHU216HW,2013-03-26 09:28:00,
2013-03-26 02:33:00,24.7,19.4,27.46,SW,225,0.0,0.0,80,0.00,,,0.00,WUHU216HW,2013-03-26 09:33:00,
2013-03-26 02:38:00,24.5,19.5,27.46,SW,225,0.0,0.0,81,0.00,,,0.00,WUHU216HW,2013-03-26 09:38:00,
2013-03-26 02:43:00,24.3,19.6,27.46,SW,225,0.0,0.0,82,0.00,,,0.00,WUHU216HW,2013-03-26 09:43:00,
2013-03-26 02:48:00,24.3,19.4,27.46,SW,225,0.0,0.0,81,0.00,,,0.00,WUHU216HW,2013-03-26 09:48:00,
2013-03-26 02:53:00,24.3,19.6,27.46,WSW,248,0.0,0.0,82,0.00,,,0.00,WUHU216HW,2013-03-26 09:53:00,
2013-03-26 02:58:00,24.5,19.8,27.46,WSW,248,0.0,0.0,82,0.00,,,0.00,WUHU216HW,2013-03-26 09:58:00,
2013-03-26 03:03:00,24.3,19.6,27.46,WSW,248,0.0,0.0,82,0.00,,,0.00,WUHU216HW,2013-03-26 10:03:00,
2013-03-26 03:08:00,24.3,19.6,27.46,WSW,248,0.0,0.0,82,0.00,,,0.00,WUHU216HW,2013-03-26 10:08:00,
2013-03-26 03:12:00,24.1,19.4,27.46,WSW,248,0.0,0.0,82,0.00,,,0.00,WUHU216HW,2013-03-26 10:12:00,
2013-03-26 03:18:00,24.1,19.2,27.46,WSW,248,0.0,0.0,81,0.00,,,0.00,WUHU216HW,2013-03-26 10:18:00,
2013-03-26 03:23:00,23.9,19.0,27.46,WSW,248,0.0,0.0,81,0.00,,,0.00,WUHU216HW,2013-03-26 10:23:00,
2013-03-26 03:28:00,23.9,19.3,27.46,WSW,248,0.0,0.0,82,0.00,,,0.00,WUHU216HW,2013-03-26 10:28:00,
2013-03-26 03:33:00,23.9,19.8,27.46,WSW,248,0.0,0.0,84,0.00,,,0.00,WUHU216HW,2013-03-26 10:33:00,
2013-03-26 03:38:00,23.9,19.5,27.46,WSW,248,0.0,0.0,83,0.00,,,0.00,WUHU216HW,2013-03-26 10:38:00,
2013-03-26 03:43:00,23.9,19.8,27.46,WSW,248,0.0,0.0,84,0.00,,,0.00,WUHU216HW,2013-03-26 10:43:00,
2013-03-26 03:48:00,23.9,19.8,27.46,WSW,248,0.0,0.0,84,0.00,,,0.00,WUHU216HW,2013-03-26 10:48:00,
2013-03-26 03:53:00,23.9,19.8,27.46,WSW,248,0.0,0.0,84,0.00,,,0.00,WUHU216HW,2013-03-26 10:53:00,
2013-03-26 03:58:00,23.9,19.8,27.46,WSW,248,0.0,0.0,84,0.00,,,0.00,WUHU216HW,2013-03-26 10:58:00,
2013-03-26 04:03:00,23.9,19.8,27.46,WSW,248,0.0,0.0,84,0.00,,,0.00,WUHU216HW,2013-03-26 11:03:00,
2013-03-26 04:08:00,23.9,19.8,27.46,WSW,248,0.0,0.0,84,0.00,,,0.00,WUHU216HW,2013-03-26 11:08:00,
2013-03-26 04:12:00,23.9,19.8,27.46,WSW,248,0.0,0.0,84,0.00,,,0.00,WUHU216HW,2013-03-26 11:12:00,
2013-03-26 04:18:00,24.1,20.3,27.46,NW,315,0.0,0.0,85,0.00,,,0.00,WUHU216HW,2013-03-26 11:18:00,
2013-03-26 04:23:00,24.5,20.6,27.46,NW,315,0.0,0.0,85,0.00,,,0.00,WUHU216HW,2013-03-26 11:23:00,
2013-03-26 04:28:00,24.7,20.8,27.46,NW,315,0.0,0.0,85,0.00,,,0.00,WUHU216HW,2013-03-26 11:28:00,
2013-03-26 04:33:00,24.8,21.0,27.46,NW,315,0.0,0.0,85,0.00,,,0.00,WUHU216HW,2013-03-26 11:33:00,
2013-03-26 04:38:00,24.8,21.0,27.46,NW,315,0.0,0.0,85,0.00,,,0.00,WUHU216HW,2013-03-26 11:38:00,
2013-03-26 04:43:00,24.8,21.0,27.46,NW,315,0.0,0.0,85,0.00,,,0.00,WUHU216HW,2013-03-26 11:43:00,
2013-03-26 04:48:00,24.7,20.5,27.46,NW,315,0.0,0.0,84,0.00,,,0.00,WUHU216HW,2013-03-26 11:48:00,
2013-03-26 04:53:00,24.3,19.9,27.46,NW,315,0.0,0.0,83,0.00,,,0.00,WUHU216HW,2013-03-26 11:53:00,
2013-03-26 04:58:00,24.1,20.0,27.46,NW,315,0.0,0.0,84,0.00,,,0.00,WUHU216HW,2013-03-26 11:58:00,
2013-03-26 05:03:00,23.9,19.8,27.46,NW,315,0.0,0.0,84,0.00,,,0.00,WUHU216HW,2013-03-26 12:03:00,
2013-03-26 05:08:00,23.8,19.6,27.46,NW,315,0.0,0.0,84,0.00,,,0.00,WUHU216HW,2013-03-26 12:08:00,
2013-03-26 05:13:00,23.9,20.1,27.45,NNW,338,0.0,0.0,85,0.00,,,0.00,WUHU216HW,2013-03-26 12:13:00,
2013-03-26 05:18:00,24.1,20.8,27.46,SW,225,0.0,0.4,87,0.00,,,0.00,WUHU216HW,2013-03-26 12:18:00,
2013-03-26 05:23:00,23.8,19.9,27.46,SW,225,0.0,0.4,85,0.00,,,0.00,WUHU216HW,2013-03-26 12:23:00,
2013-03-26 05:28:00,23.8,20.4,27.46,SSE,158,0.0,0.0,87,0.00,,,0.00,WUHU216HW,2013-03-26 12:28:00,
2013-03-26 05:33:00,23.6,20.0,27.46,SSE,158,0.0,0.4,86,0.00,,,0.00,WUHU216HW,2013-03-26 12:33:00,
2013-03-26 05:38:00,23.8,19.9,27.46,East,90,0.0,0.4,85,0.00,,,0.00,WUHU216HW,2013-03-26 12:38:00,
2013-03-26 05:43:00,24.1,20.3,27.46,East,90,0.0,0.0,85,0.00,,,0.00,WUHU216HW,2013-03-26 12:43:00,
2013-03-26 05:48:00,24.1,20.3,27.46,East,90,0.0,0.0,85,0.00,,,0.00,WUHU216HW,2013-03-26 12:48:00,
2013-03-26 05:53:00,24.3,20.4,27.46,East,90,0.0,0.0,85,0.00,,,0.00,WUHU216HW,2013-03-26 12:53:00,
2013-03-26 05:58:00,24.5,20.6,27.46,East,90,0.0,0.0,85,0.00,,,0.00,WUHU216HW,2013-03-26 12:58:00,
2013-03-26 06:03:00,24.5,20.9,27.46,East,90,0.0,0.0,86,0.00,,,0.00,WUHU216HW,2013-03-26 13:03:00,
2013-03-26 06:08:00,24.3,20.4,27.46,East,90,0.0,0.0,85,0.00,,,0.00,WUHU216HW,2013-03-26 13:08:00,
2013-03-26 06:13:00,24.3,20.4,27.46,East,90,0.0,0.0,85,0.00,,,0.00,WUHU216HW,2013-03-26 13:13:00,
2013-03-26 06:18:00,24.3,20.7,27.46,East,90,0.0,0.0,86,0.00,,,0.00,WUHU216HW,2013-03-26 13:18:00,
2013-03-26 06:23:00,24.1,20.3,27.46,East,90,0.0,0.0,85,0.00,,,0.00,WUHU216HW,2013-03-26 13:23:00,
2013-03-26 06:28:00,24.1,20.3,27.46,East,90,0.0,0.0,85,0.00,,,0.00,WUHU216HW,2013-03-26 13:28:00,
2013-03-26 06:33:00,23.9,20.1,27.47,East,90,0.0,0.0,85,0.00,,,0.00,WUHU216HW,2013-03-26 13:33:00,
2013-03-26 06:38:00,23.8,20.2,27.47,East,90,0.0,0.0,86,0.00,,,0.00,WUHU216HW,2013-03-26 13:38:00,
2013-03-26 06:43:00,23.6,19.7,27.47,East,90,0.0,0.0,85,0.00,,,0.00,WUHU216HW,2013-03-26 13:43:00,
2013-03-26 06:48:00,23.4,19.5,27.47,East,90,0.0,0.0,85,0.00,,,0.00,WUHU216HW,2013-03-26 13:48:00,
2013-03-26 06:53:00,23.2,19.4,27.47,East,90,0.0,0.0,85,0.00,,,0.00,WUHU216HW,2013-03-26 13:53:00,
2013-03-26 06:58:00,23.2,19.4,27.47,East,90,0.0,0.0,85,0.00,,,0.00,WUHU216HW,2013-03-26 13:58:00,
2013-03-26 07:03:00,23.0,19.2,27.47,East,90,0.0,0.0,85,0.00,,,0.00,WUHU216HW,2013-03-26 14:03:00,
2013-03-26 07:08:00,23.2,19.6,27.47,ENE,68,0.0,0.0,86,0.00,,,0.00,WUHU216HW,2013-03-26 14:08:00,
2013-03-26 07:13:00,23.4,19.8,27.47,ENE,68,0.0,0.0,86,0.00,,,0.00,WUHU216HW,2013-03-26 14:13:00,
2013-03-26 07:18:00,23.8,20.2,27.47,NNE,23,0.0,0.0,86,0.00,,,0.00,WUHU216HW,2013-03-26 14:18:00,
2013-03-26 07:23:00,23.6,20.0,27.47,NNE,23,0.0,0.0,86,0.00,,,0.00,WUHU216HW,2013-03-26 14:23:00,
2013-03-26 07:28:00,23.6,20.0,27.47,NNE,23,0.0,0.0,86,0.00,,,0.00,WUHU216HW,2013-03-26 14:28:00,
2013-03-26 07:33:00,23.4,19.8,27.47,NNE,23,0.0,0.0,86,0.00,,,0.00,WUHU216HW,2013-03-26 14:33:00,
2013-03-26 07:38:00,23.6,19.7,27.47,NNE,23,0.0,0.0,85,0.00,,,0.00,WUHU216HW,2013-03-26 14:38:00,
2013-03-26 07:43:00,23.6,19.7,27.47,NNE,23,0.0,0.0,85,0.00,,,0.00,WUHU216HW,2013-03-26 14:43:00,
2013-03-26 07:48:00,23.6,19.7,27.47,NNE,23,0.0,0.0,85,0.00,,,0.00,WUHU216HW,2013-03-26 14:48:00,
2013-03-26 07:53:00,23.6,19.7,27.47,NNE,23,0.0,0.0,85,0.00,,,0.00,WUHU216HW,2013-03-26 14:53:00,
2013-03-26 07:58:00,24.1,20.5,27.47,NNE,23,0.0,0.0,86,0.00,,,0.00,WUHU216HW,2013-03-26 14:58:00,
2013-03-26 08:03:00,24.5,20.9,27.47,NNE,23,0.0,0.0,86,0.00,,,0.00,WUHU216HW,2013-03-26 15:03:00,
2013-03-26 08:08:00,24.8,21.2,27.47,NNE,23,0.0,0.0,86,0.00,,,0.00,WUHU216HW,2013-03-26 15:08:00,
2013-03-26 08:13:00,25.0,21.4,27.47,NNE,23,0.0,0.0,86,0.00,,,0.00,WUHU216HW,2013-03-26 15:13:00,
2013-03-26 08:18:00,25.6,22.2,27.48,NNE,23,0.0,0.0,87,0.00,,,0.00,WUHU216HW,2013-03-26 15:18:00,
2013-03-26 08:23:00,26.1,22.8,27.47,NNE,23,0.0,0.0,87,0.00,,,0.00,WUHU216HW,2013-03-26 15:23:00,
2013-03-26 08:28:00,26.8,23.1,27.47,NNE,23,0.0,0.0,86,0.00,,,0.00,WUHU216HW,2013-03-26 15:28:00,
2013-03-26 08:33:00,27.4,23.9,27.48,NNE,23,0.0,0.0,87,0.00,,,0.00,WUHU216HW,2013-03-26 15:33:00,
2013-03-26 08:38:00,28.1,24.4,27.48,NNE,23,0.0,0.0,86,0.00,,,0.00,WUHU216HW,2013-03-26 15:38:00,
2013-03-26 08:43:00,28.6,24.9,27.48,NNE,23,0.0,0.2,86,0.00,,,0.00,WUHU216HW,2013-03-26 15:43:00,
2013-03-26 08:48:00,29.5,25.8,27.48,NNW,338,0.0,0.2,86,0.00,,,0.00,WUHU216HW,2013-03-26 15:48:00,
2013-03-26 08:53:00,30.2,26.3,27.48,NNE,23,0.0,0.9,85,0.00,,,0.00,WUHU216HW,2013-03-26 15:53:00,
2013-03-26 08:58:00,31.3,26.8,27.48,North,0,0.4,0.9,83,0.00,,,0.00,WUHU216HW,2013-03-26 15:58:00,
2013-03-26 09:03:00,32.2,27.1,27.48,NE,45,0.2,0.4,81,0.00,,,0.00,WUHU216HW,2013-03-26 16:03:00,
2013-03-26 09:08:00,33.5,27.6,27.48,SW,225,0.2,1.8,79,0.00,,,0.00,WUHU216HW,2013-03-26 16:08:00,
2013-03-26 09:13:00,34.2,27.6,27.48,WSW,248,0.0,1.8,77,0.00,,,0.00,WUHU216HW,2013-03-26 16:13:00,
2013-03-26 09:18:00,35.5,27.9,27.48,NNW,338,0.0,1.6,74,0.00,,,0.00,WUHU216HW,2013-03-26 16:18:00,
2013-03-26 09:23:00,36.9,28.7,27.48,West,270,1.8,1.8,72,0.00,,,0.00,WUHU216HW,2013-03-26 16:23:00,
2013-03-26 09:28:00,37.8,28.2,27.48,SSW,203,1.1,1.8,68,0.00,,,0.00,WUHU216HW,2013-03-26 16:28:00,
2013-03-26 09:33:00,38.0,29.4,27.48,SSE,158,0.4,1.6,71,0.00,,,0.00,WUHU216HW,2013-03-26 16:33:00,
2013-03-26 09:38:00,38.0,29.1,27.48,NNE,23,0.2,1.1,70,0.00,,,0.00,WUHU216HW,2013-03-26 16:38:00,
2013-03-26 09:43:00,38.5,29.3,27.48,North,0,0.7,1.1,69,0.00,,,0.00,WUHU216HW,2013-03-26 16:43:00,
2013-03-26 09:48:00,40.1,30.0,27.48,NW,315,0.0,1.3,67,0.00,,,0.00,WUHU216HW,2013-03-26 16:48:00,
2013-03-26 09:53:00,42.1,32.0,27.48,ENE,68,0.7,1.3,67,0.00,,,0.00,WUHU216HW,2013-03-26 16:53:00,
2013-03-26 09:58:00,43.4,29.1,27.48,SW,225,1.8,1.8,57,0.00,,,0.00,WUHU216HW,2013-03-26 16:58:00,
2013-03-26 10:03:00,43.7,30.8,27.48,North,0,0.4,1.8,60,0.00,,,0.00,WUHU216HW,2013-03-26 17:03:00,
2013-03-26 10:08:00,45.4,31.0,27.48,NNE,23,0.9,1.8,57,0.00,,,0.00,WUHU216HW,2013-03-26 17:08:00,
2013-03-26 10:13:00,45.7,31.3,27.48,West,270,0.4,1.1,57,0.00,,,0.00,WUHU216HW,2013-03-26 17:13:00,
2013-03-26 10:18:00,46.4,32.0,27.48,NE,45,0.4,0.9,57,0.00,,,0.00,WUHU216HW,2013-03-26 17:18:00,
2013-03-26 10:23:00,47.3,31.9,27.48,SSW,203,1.8,1.8,55,0.00,,,0.00,WUHU216HW,2013-03-26 17:23:00,
2013-03-26 10:28:00,48.1,31.2,27.48,NNE,23,0.2,1.8,52,0.00,,,0.00,WUHU216HW,2013-03-26 17:28:00,
2013-03-26 10:33:00,48.1,28.6,27.48,SSW,203,0.4,2.5,47,0.00,,,0.00,WUHU216HW,2013-03-26 17:33:00,
2013-03-26 10:38:00,47.9,30.1,27.48,NNE,23,1.1,3.4,50,0.00,,,0.00,WUHU216HW,2013-03-26 17:38:00,
2013-03-26 10:43:00,48.6,30.8,27.48,NE,45,0.7,3.4,50,0.00,,,0.00,WUHU216HW,2013-03-26 17:43:00,
2013-03-26 10:48:00,49.0,30.1,27.48,SW,225,1.6,4.0,48,0.00,,,0.00,WUHU216HW,2013-03-26 17:48:00,
2013-03-26 10:53:00,49.7,30.8,27.48,NE,45,0.4,4.0,48,0.00,,,0.00,WUHU216HW,2013-03-26 17:53:00,
2013-03-26 10:58:00,50.0,31.7,27.48,North,0,0.4,2.0,49,0.00,,,0.00,WUHU216HW,2013-03-26 17:58:00,
2013-03-26 11:03:00,50.0,31.2,27.48,North,0,0.4,1.3,48,0.00,,,0.00,WUHU216HW,2013-03-26 18:03:00,
2013-03-26 11:08:00,50.8,31.8,27.48,North,0,1.1,1.3,48,0.00,,,0.00,WUHU216HW,2013-03-26 18:08:00,
2013-03-26 11:13:00,50.9,31.3,27.48,SW,225,1.8,2.5,47,0.00,,,0.00,WUHU216HW,2013-03-26 18:13:00,
2013-03-26 11:18:00,51.5,31.9,27.48,West,270,0.7,2.5,47,0.00,,,0.00,WUHU216HW,2013-03-26 18:18:00,
2013-03-26 11:23:00,51.8,30.0,27.48,SSE,158,1.3,2.5,43,0.00,,,0.00,WUHU216HW,2013-03-26 18:23:00,
2013-03-26 11:28:00,52.2,30.2,27.48,SW,225,1.1,1.8,43,0.00,,,0.00,WUHU216HW,2013-03-26 18:28:00,
2013-03-26 11:33:00,52.9,32.1,27.48,North,0,0.4,1.6,45,0.00,,,0.00,WUHU216HW,2013-03-26 18:33:00,
2013-03-26 11:38:00,53.3,31.2,27.48,SSE,158,2.9,2.9,43,0.00,,,0.00,WUHU216HW,2013-03-26 18:38:00,
2013-03-26 11:43:00,53.3,30.7,27.48,SSE,158,1.8,2.9,42,0.00,,,0.00,WUHU216HW,2013-03-26 18:43:00,
2013-03-26 11:48:00,52.9,31.5,27.47,SW,225,0.4,2.9,44,0.00,,,0.00,WUHU216HW,2013-03-26 18:48:00,
2013-03-26 11:53:00,53.3,31.2,27.47,ENE,68,2.5,3.4,43,0.00,,,0.00,WUHU216HW,2013-03-26 18:53:00,
2013-03-26 11:58:00,53.5,32.0,27.47,SE,135,1.8,3.4,44,0.00,,,0.00,WUHU216HW,2013-03-26 18:58:00,
2013-03-26 12:03:00,54.0,30.8,27.47,South,180,0.9,2.9,41,0.00,,,0.00,WUHU216HW,2013-03-26 19:03:00,
2013-03-26 12:08:00,53.6,31.0,27.47,ESE,113,1.6,2.5,42,0.00,,,0.00,WUHU216HW,2013-03-26 19:08:00,
2013-03-26 12:13:00,54.9,32.1,27.47,NNW,338,1.1,1.8,42,0.00,,,0.00,WUHU216HW,2013-03-26 19:13:00,
2013-03-26 12:18:00,55.6,32.2,27.47,NNE,23,1.3,4.7,41,0.00,,,0.00,WUHU216HW,2013-03-26 19:18:00,
2013-03-26 12:23:00,56.2,32.7,27.47,NW,315,2.2,4.7,41,0.00,,,0.00,WUHU216HW,2013-03-26 19:23:00,
2013-03-26 12:28:00,56.2,30.1,27.47,South,180,3.4,3.4,37,0.00,,,0.00,WUHU216HW,2013-03-26 19:28:00,
2013-03-26 12:33:00,56.2,31.4,27.47,SW,225,2.2,3.4,39,0.00,,,0.00,WUHU216HW,2013-03-26 19:33:00,
2013-03-26 12:38:00,57.2,33.1,27.47,ENE,68,1.3,3.1,40,0.00,,,0.00,WUHU216HW,2013-03-26 19:38:00,
2013-03-26 12:43:00,58.0,33.8,27.46,NNE,23,0.7,3.1,40,0.00,,,0.00,WUHU216HW,2013-03-26 19:43:00,
2013-03-26 12:48:00,58.3,34.1,27.46,South,180,1.6,1.8,40,0.00,,,0.00,WUHU216HW,2013-03-26 19:48:00,
2013-03-26 12:53:00,58.9,31.8,27.46,West,270,1.8,1.8,36,0.00,,,0.00,WUHU216HW,2013-03-26 19:53:00,
2013-03-26 12:58:00,59.4,34.4,27.46,ENE,68,1.6,1.8,39,0.00,,,0.00,WUHU216HW,2013-03-26 19:58:00,
2013-03-26 13:03:00,60.8,34.9,27.46,SW,225,0.2,1.8,38,0.00,,,0.00,WUHU216HW,2013-03-26 20:03:00,
2013-03-26 13:08:00,59.9,33.4,27.46,West,270,2.2,6.3,37,0.00,,,0.00,WUHU216HW,2013-03-26 20:08:00,
2013-03-26 13:13:00,59.9,32.7,27.46,North,0,2.0,6.3,36,0.00,,,0.00,WUHU216HW,2013-03-26 20:13:00,
2013-03-26 13:18:00,59.0,32.0,27.46,SE,135,2.0,3.6,36,0.00,,,0.00,WUHU216HW,2013-03-26 20:18:00,
2013-03-26 13:23:00,58.1,31.2,27.46,SW,225,0.2,4.5,36,0.00,,,0.00,WUHU216HW,2013-03-26 20:23:00,
2013-03-26 13:28:00,58.1,31.2,27.46,SSW,203,1.1,4.5,36,0.00,,,0.00,WUHU216HW,2013-03-26 20:28:00,
2013-03-26 13:33:00,58.5,31.4,27.46,WSW,248,5.4,5.4,36,0.00,,,0.00,WUHU216HW,2013-03-26 20:33:00,
2013-03-26 13:38:00,58.5,31.4,27.46,WSW,248,0.9,5.4,36,0.00,,,0.00,WUHU216HW,2013-03-26 20:38:00,
2013-03-26 13:43:00,58.7,31.6,27.45,SSW,203,1.8,4.0,36,0.00,,,0.00,WUHU216HW,2013-03-26 20:43:00,
2013-03-26 13:48:00,59.4,32.9,27.45,SW,225,1.8,2.5,37,0.00,,,0.00,WUHU216HW,2013-03-26 20:48:00,
2013-03-26 13:53:00,59.8,30.4,27.45,WSW,248,4.7,4.7,33,0.00,,,0.00,WUHU216HW,2013-03-26 20:53:00,
2013-03-26 13:58:00,58.9,31.8,27.45,NE,45,3.1,5.4,36,0.00,,,0.00,WUHU216HW,2013-03-26 20:58:00,
2013-03-26 14:03:00,59.6,31.0,27.45,South,180,2.9,5.4,34,0.00,,,0.00,WUHU216HW,2013-03-26 21:03:00,
2013-03-26 14:08:00,59.6,33.1,27.45,NNW,338,0.0,4.0,37,0.00,,,0.00,WUHU216HW,2013-03-26 21:08:00,
2013-03-26 14:13:00,61.2,32.4,27.45,ESE,113,4.5,4.5,34,0.00,,,0.00,WUHU216HW,2013-03-26 21:13:00,
2013-03-26 14:18:00,60.7,31.1,27.45,SSW,203,1.3,4.5,33,0.00,,,0.00,WUHU216HW,2013-03-26 21:18:00,
2013-03-26 14:23:00,60.3,31.6,27.45,SW,225,3.4,5.8,34,0.00,,,0.00,WUHU216HW,2013-03-26 21:23:00,
2013-03-26 14:28:00,59.9,31.3,27.45,SW,225,2.9,6.3,34,0.00,,,0.00,WUHU216HW,2013-03-26 21:28:00,
2013-03-26 14:33:00,58.9,30.3,27.45,NW,315,1.3,6.3,34,0.00,,,0.00,WUHU216HW,2013-03-26 21:33:00,
2013-03-26 14:38:00,59.0,32.7,27.45,SW,225,0.4,3.4,37,0.00,,,0.00,WUHU216HW,2013-03-26 21:38:00,
2013-03-26 14:43:00,60.3,30.9,27.45,SSE,158,0.7,2.9,33,0.00,,,0.00,WUHU216HW,2013-03-26 21:43:00,
2013-03-26 14:48:00,59.6,32.4,27.45,SSE,158,1.8,3.6,36,0.00,,,0.00,WUHU216HW,2013-03-26 21:48:00,
2013-03-26 14:53:00,59.9,31.3,27.44,SSE,158,1.1,4.3,34,0.00,,,0.00,WUHU216HW,2013-03-26 21:53:00,
2013-03-26 14:58:00,59.8,31.9,27.44,South,180,2.0,4.3,35,0.00,,,0.00,WUHU216HW,2013-03-26 21:58:00,
2013-03-26 15:03:00,59.6,31.7,27.44,NNE,23,4.0,5.4,35,0.00,,,0.00,WUHU216HW,2013-03-26 22:03:00,
2013-03-26 15:08:00,60.5,32.5,27.44,SSW,203,3.4,5.4,35,0.00,,,0.00,WUHU216HW,2013-03-26 22:08:00,
2013-03-26 15:13:00,60.1,31.4,27.44,SW,225,4.5,4.5,34,0.00,,,0.00,WUHU216HW,2013-03-26 22:13:00,
2013-03-26 15:18:00,59.8,32.6,27.44,WSW,248,3.1,4.5,36,0.00,,,0.00,WUHU216HW,2013-03-26 22:18:00,
2013-03-26 15:23:00,60.8,32.0,27.44,SSW,203,2.2,4.5,34,0.00,,,0.00,WUHU216HW,2013-03-26 22:23:00,
2013-03-26 15:28:00,61.4,32.5,27.44,SW,225,1.1,4.3,34,0.00,,,0.00,WUHU216HW,2013-03-26 22:28:00,
2013-03-26 15:33:00,61.6,31.2,27.44,SW,225,4.5,4.5,32,0.00,,,0.00,WUHU216HW,2013-03-26 22:33:00,
2013-03-26 15:38:00,61.0,32.2,27.44,SSW,203,3.6,6.0,34,0.00,,,0.00,WUHU216HW,2013-03-26 22:38:00,
2013-03-26 15:43:00,60.5,31.8,27.43,SW,225,2.2,6.0,34,0.00,,,0.00,WUHU216HW,2013-03-26 22:43:00,
2013-03-26 15:48:00,60.7,32.6,27.43,WSW,248,1.8,5.4,35,0.00,,,0.00,WUHU216HW,2013-03-26 22:48:00,
2013-03-26 15:53:00,61.4,31.8,27.43,SW,225,2.5,5.4,33,0.00,,,0.00,WUHU216HW,2013-03-26 22:53:00,
2013-03-26 15:58:00,58.9,31.1,27.43,ENE,68,0.0,4.7,35,0.00,,,0.00,WUHU216HW,2013-03-26 22:58:00,
2013-03-26 16:03:00,59.0,32.7,27.43,North,0,0.0,4.7,37,0.00,,,0.00,WUHU216HW,2013-03-26 23:03:00,
2013-03-26 16:08:00,61.2,31.7,27.43,SW,225,1.1,3.1,33,0.00,,,0.00,WUHU216HW,2013-03-26 23:08:00,
2013-03-26 16:13:00,60.7,32.6,27.43,SW,225,3.4,5.4,35,0.00,,,0.00,WUHU216HW,2013-03-26 23:13:00,
2013-03-26 16:18:00,60.5,31.8,27.43,WSW,248,4.3,5.4,34,0.00,,,0.00,WUHU216HW,2013-03-26 23:18:00,
2013-03-26 16:23:00,59.9,31.3,27.43,WSW,248,5.4,5.4,34,0.00,,,0.00,WUHU216HW,2013-03-26 23:23:00,
2013-03-26 16:28:00,59.2,32.1,27.43,SSE,158,2.9,5.4,36,0.00,,,0.00,WUHU216HW,2013-03-26 23:28:00,
2013-03-26 16:33:00,58.1,31.9,27.43,SSE,158,1.1,4.3,37,0.00,,,0.00,WUHU216HW,2013-03-26 23:33:00,
2013-03-26 16:38:00,58.0,33.0,27.43,WSW,248,4.0,4.7,39,0.00,,,0.00,WUHU216HW,2013-03-26 23:38:00,
2013-03-26 16:43:00,57.8,31.5,27.43,South,180,1.1,4.7,37,0.00,,,0.00,WUHU216HW,2013-03-26 23:43:00,
2013-03-26 16:48:00,57.6,32.8,27.43,SW,225,2.5,4.7,39,0.00,,,0.00,WUHU216HW,2013-03-26 23:48:00,
2013-03-26 16:53:00,58.3,32.7,27.43,WSW,248,1.3,3.4,38,0.00,,,0.00,WUHU216HW,2013-03-26 23:53:00,
2013-03-26 16:58:00,58.5,32.1,27.43,SE,135,1.1,5.4,37,0.00,,,0.00,WUHU216HW,2013-03-26 23:58:00,
2013-03-26 17:03:00,58.0,31.7,27.43,SW,225,1.8,5.4,37,0.00,,,0.00,WUHU216HW,2013-03-27 00:03:00,
2013-03-26 17:08:00,58.0,32.4,27.43,WSW,248,2.2,3.4,38,0.00,,,0.00,WUHU216HW,2013-03-27 00:08:00,
2013-03-26 17:13:00,58.5,32.1,27.43,SW,225,3.4,3.4,37,0.00,,,0.00,WUHU216HW,2013-03-27 00:13:00,
2013-03-26 17:18:00,58.5,31.4,27.43,SW,225,2.0,3.4,36,0.00,,,0.00,WUHU216HW,2013-03-27 00:18:00,
2013-03-26 17:23:00,58.3,32.0,27.43,SW,225,2.0,3.4,37,0.00,,,0.00,WUHU216HW,2013-03-27 00:23:00,
2013-03-26 17:28:00,58.1,31.9,27.42,SSE,158,1.1,3.1,37,0.00,,,0.00,WUHU216HW,2013-03-27 00:28:00,
2013-03-26 17:33:00,58.1,31.9,27.42,SW,225,2.2,3.4,37,0.00,,,0.00,WUHU216HW,2013-03-27 00:33:00,
2013-03-26 17:38:00,58.0,31.7,27.42,WSW,248,2.2,4.3,37,0.00,,,0.00,WUHU216HW,2013-03-27 00:38:00,
2013-03-26 17:43:00,57.8,31.5,27.42,SW,225,1.1,4.3,37,0.00,,,0.00,WUHU216HW,2013-03-27 00:43:00,
2013-03-26 17:48:00,57.6,32.0,27.42,WSW,248,2.9,3.6,38,0.00,,,0.00,WUHU216HW,2013-03-27 00:48:00,
2013-03-26 17:53:00,57.2,31.7,27.42,WSW,248,1.6,3.1,38,0.00,,,0.00,WUHU216HW,2013-03-27 00:53:00,
2013-03-26 17:58:00,57.4,31.1,27.42,SSW,203,3.4,3.8,37,0.00,,,0.00,WUHU216HW,2013-03-27 00:58:00,
2013-03-26 18:03:00,57.2,32.4,27.42,SSW,203,2.2,3.8,39,0.00,,,0.00,WUHU216HW,2013-03-27 01:03:00,
2013-03-26 18:08:00,56.5,31.8,27.43,SW,225,1.8,3.4,39,0.00,,,0.00,WUHU216HW,2013-03-27 01:08:00,
2013-03-26 18:13:00,55.8,31.2,27.43,WSW,248,1.6,3.1,39,0.00,,,0.00,WUHU216HW,2013-03-27 01:13:00,
2013-03-26 18:18:00,55.1,31.8,27.43,SW,225,1.6,2.7,41,0.00,,,0.00,WUHU216HW,2013-03-27 01:18:00,
2013-03-26 18:23:00,54.5,31.2,27.43,SW,225,0.7,2.7,41,0.00,,,0.00,WUHU216HW,2013-03-27 01:23:00,
2013-03-26 18:28:00,54.4,31.7,27.43,SW,225,0.0,2.2,42,0.00,,,0.00,WUHU216HW,2013-03-27 01:28:00,
2013-03-26 18:33:00,53.6,31.6,27.42,NW,315,0.4,0.9,43,0.00,,,0.00,WUHU216HW,2013-03-27 01:33:00,
2013-03-26 18:38:00,53.3,31.8,27.42,NW,315,0.0,0.4,44,0.00,,,0.00,WUHU216HW,2013-03-27 01:38:00,
2013-03-26 18:43:00,52.6,31.1,27.43,NW,315,0.0,0.4,44,0.00,,,0.00,WUHU216HW,2013-03-27 01:43:00,
2013-03-26 18:48:00,52.2,31.4,27.42,NNW,338,0.0,0.0,45,0.00,,,0.00,WUHU216HW,2013-03-27 01:48:00,
2013-03-26 18:53:00,51.5,30.7,27.43,NNW,338,0.0,0.0,45,0.00,,,0.00,WUHU216HW,2013-03-27 01:53:00,
2013-03-26 18:58:00,50.8,30.6,27.43,NNW,338,0.0,0.0,46,0.00,,,0.00,WUHU216HW,2013-03-27 01:58:00,
2013-03-26 19:03:00,50.0,30.5,27.42,NNW,338,0.0,0.0,47,0.00,,,0.00,WUHU216HW,2013-03-27 02:03:00,
2013-03-26 19:08:00,49.3,30.4,27.43,NNW,338,0.0,0.0,48,0.00,,,0.00,WUHU216HW,2013-03-27 02:08:00,
2013-03-26 19:13:00,48.6,29.7,27.43,NNW,338,0.0,0.0,48,0.00,,,0.00,WUHU216HW,2013-03-27 02:13:00,
2013-03-26 19:18:00,47.9,30.1,27.43,NNW,338,0.0,0.0,50,0.00,,,0.00,WUHU216HW,2013-03-27 02:18:00,
2013-03-26 19:23:00,47.2,29.9,27.43,NNW,338,0.0,0.0,51,0.00,,,0.00,WUHU216HW,2013-03-27 02:23:00,
2013-03-26 19:28:00,46.4,29.7,27.43,NNW,338,0.0,0.0,52,0.00,,,0.00,WUHU216HW,2013-03-27 02:28:00,
2013-03-26 19:33:00,45.7,29.5,27.43,ENE,68,0.0,0.0,53,0.00,,,0.00,WUHU216HW,2013-03-27 02:33:00,
2013-03-26 19:38:00,45.0,29.4,27.43,ENE,68,0.0,0.0,54,0.00,,,0.00,WUHU216HW,2013-03-27 02:38:00,
2013-03-26 19:43:00,44.3,28.6,27.43,ENE,68,0.0,0.0,54,0.00,,,0.00,WUHU216HW,2013-03-27 02:43:00,
2013-03-26 19:48:00,43.7,29.4,27.43,ENE,68,0.0,0.0,57,0.00,,,0.00,WUHU216HW,2013-03-27 02:48:00,
2013-03-26 19:53:00,43.2,29.3,27.43,ENE,68,0.0,0.2,58,0.00,,,0.00,WUHU216HW,2013-03-27 02:53:00,
2013-03-26 19:58:00,42.5,28.7,27.43,ENE,68,0.0,0.2,58,0.00,,,0.00,WUHU216HW,2013-03-27 02:58:00,
2013-03-26 20:03:00,42.1,28.8,27.43,ENE,68,0.0,0.0,59,0.00,,,0.00,WUHU216HW,2013-03-27 03:03:00,
2013-03-26 20:08:00,41.6,28.3,27.43,ENE,68,0.0,0.2,59,0.00,,,0.00,WUHU216HW,2013-03-27 03:08:00,
2013-03-26 20:13:00,41.0,28.6,27.43,ENE,68,0.0,0.2,61,0.00,,,0.00,WUHU216HW,2013-03-27 03:13:00,
2013-03-26 20:18:00,40.7,28.6,27.43,ENE,68,0.0,0.0,62,0.00,,,0.00,WUHU216HW,2013-03-27 03:18:00,
2013-03-26 20:23:00,40.1,28.1,27.44,ENE,68,0.0,0.0,62,0.00,,,0.00,WUHU216HW,2013-03-27 03:23:00,
2013-03-26 20:28:00,39.6,28.0,27.44,ENE,68,0.0,0.0,63,0.00,,,0.00,WUHU216HW,2013-03-27 03:28:00,
2013-03-26 20:33:00,39.2,27.6,27.43,ENE,68,0.0,0.0,63,0.00,,,0.00,WUHU216HW,2013-03-27 03:33:00,
2013-03-26 20:38:00,38.9,27.3,27.43,ENE,68,0.0,0.0,63,0.00,,,0.00,WUHU216HW,2013-03-27 03:38:00,
2013-03-26 20:43:00,38.5,26.9,27.44,ENE,68,0.0,0.0,63,0.00,,,0.00,WUHU216HW,2013-03-27 03:43:00,
2013-03-26 20:48:00,38.2,27.7,27.44,NNE,23,0.0,0.0,66,0.00,,,0.00,WUHU216HW,2013-03-27 03:48:00,
2013-03-26 20:53:00,37.8,26.6,27.44,East,90,1.1,1.1,64,0.00,,,0.00,WUHU216HW,2013-03-27 03:53:00,
2013-03-26 20:58:00,37.4,27.1,27.44,East,90,0.0,1.1,66,0.00,,,0.00,WUHU216HW,2013-03-27 03:58:00,
2013-03-26 21:00:00,37.4,27.1,27.44,East,90,0.0,1.1,66,0.00,,,0.00,WUHU216HW,2013-03-27 04:00:00,
2013-03-26 21:05:00,37.1,27.2,27.43,East,90,0.0,0.2,67,0.00,,,0.00,WUHU216HW,2013-03-27 04:05:00,
2013-03-26 21:10:00,36.7,26.8,27.44,ENE,68,0.0,0.4,67,0.00,,,0.00,WUHU216HW,2013-03-27 04:10:00,
2013-03-26 21:15:00,36.4,26.8,27.44,NE,45,0.2,0.4,68,0.00,,,0.00,WUHU216HW,2013-03-27 04:15:00,
2013-03-26 21:20:00,36.2,26.3,27.44,ENE,68,0.0,0.4,67,0.00,,,0.00,WUHU216HW,2013-03-27 04:20:00,
2013-03-26 21:25:00,35.8,26.3,27.44,ENE,68,0.0,0.2,68,0.00,,,0.00,WUHU216HW,2013-03-27 04:25:00,
2013-03-26 21:30:00,35.6,26.5,27.44,ENE,68,0.0,0.2,69,0.00,,,0.00,WUHU216HW,2013-03-27 04:30:00,
2013-03-26 21:35:00,35.3,26.1,27.44,ENE,68,0.0,0.2,69,0.00,,,0.00,WUHU216HW,2013-03-27 04:35:00,
2013-03-26 21:40:00,34.9,26.1,27.44,ENE,68,0.0,0.0,70,0.00,,,0.00,WUHU216HW,2013-03-27 04:40:00,
2013-03-26 21:45:00,34.7,25.9,27.44,ENE,68,0.0,0.0,70,0.00,,,0.00,WUHU216HW,2013-03-27 04:45:00,
2013-03-26 21:50:00,34.4,25.9,27.44,ENE,68,0.0,0.0,71,0.00,,,0.00,WUHU216HW,2013-03-27 04:50:00,
2013-03-26 21:55:00,34.2,25.8,27.44,ENE,68,0.0,0.0,71,0.00,,,0.00,WUHU216HW,2013-03-27 04:55:00,
2013-03-26 22:00:00,34.0,26.2,27.44,ENE,68,0.4,0.4,73,0.00,,,0.00,WUHU216HW,2013-03-27 05:00:00,
2013-03-26 22:05:00,33.8,26.0,27.44,ENE,68,0.4,0.4,73,0.00,,,0.00,WUHU216HW,2013-03-27 05:05:00,
2013-03-26 22:10:00,33.7,25.8,27.44,ENE,68,0.0,0.4,73,0.00,,,0.00,WUHU216HW,2013-03-27 05:10:00,
2013-03-26 22:15:00,33.5,26.3,27.43,ENE,68,0.2,0.7,75,0.00,,,0.00,WUHU216HW,2013-03-27 05:15:00,
2013-03-26 22:20:00,33.3,26.2,27.43,ENE,68,0.0,0.7,75,0.00,,,0.00,WUHU216HW,2013-03-27 05:20:00,
2013-03-26 22:25:00,33.1,26.0,27.43,ENE,68,0.0,0.4,75,0.00,,,0.00,WUHU216HW,2013-03-27 05:25:00,
2013-03-26 22:30:00,33.1,26.3,27.43,ENE,68,0.0,0.0,76,0.00,,,0.00,WUHU216HW,2013-03-27 05:30:00,
2013-03-26 22:35:00,33.1,26.0,27.43,ENE,68,0.0,0.0,75,0.00,,,0.00,WUHU216HW,2013-03-27 05:35:00,
2013-03-26 22:40:00,33.1,26.3,27.43,ENE,68,0.0,0.0,76,0.00,,,0.00,WUHU216HW,2013-03-27 05:40:00,
2013-03-26 22:45:00,33.1,26.3,27.43,ENE,68,0.0,0.0,76,0.00,,,0.00,WUHU216HW,2013-03-27 05:45:00,
2013-03-26 22:50:00,33.1,26.3,27.43,ENE,68,0.0,0.0,76,0.00,,,0.00,WUHU216HW,2013-03-27 05:50:00,
2013-03-26 22:55:00,33.1,26.3,27.43,ENE,68,0.0,0.0,76,0.00,,,0.00,WUHU216HW,2013-03-27 05:55:00,
2013-03-26 23:00:00,33.1,26.3,27.43,ENE,68,0.0,0.0,76,0.00,,,0.00,WUHU216HW,2013-03-27 06:00:00,
2013-03-26 23:05:00,32.8,26.0,27.43,ENE,68,0.0,0.0,76,0.00,,,0.00,WUHU216HW,2013-03-27 06:05:00,
2013-03-26 23:10:00,32.6,26.2,27.43,ENE,68,0.0,0.0,77,0.00,,,0.00,WUHU216HW,2013-03-27 06:10:00,
2013-03-26 23:15:00,32.4,26.6,27.43,ENE,68,0.0,0.0,79,0.00,,,0.00,WUHU216HW,2013-03-27 06:15:00,
2013-03-26 23:20:00,32.4,26.6,27.43,ENE,68,0.0,0.0,79,0.00,,,0.00,WUHU216HW,2013-03-27 06:20:00,
2013-03-26 23:25:00,32.2,26.5,27.43,ENE,68,0.0,0.0,79,0.00,,,0.00,WUHU216HW,2013-03-27 06:25:00,
2013-03-26 23:30:00,31.9,25.8,27.43,ENE,68,0.0,0.0,78,0.00,,,0.00,WUHU216HW,2013-03-27 06:30:00,
2013-03-26 23:35:00,31.7,25.7,27.43,ESE,113,0.4,0.4,78,0.00,,,0.00,WUHU216HW,2013-03-27 06:35:00,
2013-03-26 23:40:00,31.5,26.1,27.44,ESE,113,0.0,0.4,80,0.00,,,0.00,WUHU216HW,2013-03-27 06:40:00,
2013-03-26 23:45:00,31.5,25.7,27.43,ESE,113,0.0,0.4,79,0.00,,,0.00,WUHU216HW,2013-03-27 06:45:00,
2013-03-26 23:50:00,31.3,25.9,27.43,ESE,113,0.0,0.2,80,0.00,,,0.00,WUHU216HW,2013-03-27 06:50:00,
2013-03-26 23:55:00,31.3,25.9,27.43,ESE,113,0.0,0.0,80,0.00,,,0.00,WUHU216HW,2013-03-27 06:55:00,